Location: Clarion
(42.7316°N, 93.7330°W)
Time: 08:30:15
(UTC+00:00)

Cosmos 1805 Rocket - Pass Details

Date: 22 April 2026
Orbit: 599 x 622 km, 82.5° (Epoch: 16 May)

Event Time Altitude Azimuth Distance (km) Brightness Sun altitude
Rises 10:35:19 0° 348° (NNW) 2,899 7.2 -8.8°
Reaches altitude 10° 10:37:34 10° 346° (NNW) 1,986 6.3 -8.5°
Maximum altitude 10:41:55 65° 265° (W) 678 3.5 -7.7°
Drops below altitude 10° 10:46:12 10° 184° (S) 1,955 5.9 -7.0°
Sets 10:48:25 0° 181° (S) 2,850 6.7 -6.7°
